TimeCDT,TemperatureF,Dew PointF,Humidity,Sea Level PressureIn,VisibilityMPH,Wind Direction,Wind SpeedMPH,Gust SpeedMPH,PrecipitationIn,Events,Conditions,WindDirDegrees,DateUTC
12:55 AM,23.2,20.1,88,30.33,10.0,Calm,Calm,-,N/A,,Clear,0,2013-03-29 05:55:00
1:55 AM,21.6,19.4,91,30.33,10.0,Calm,Calm,-,N/A,,Clear,0,2013-03-29 06:55:00
2:55 AM,21.2,19.2,92,30.33,10.0,Calm,Calm,-,N/A,,Clear,0,2013-03-29 07:55:00
3:55 AM,21.0,18.3,89,30.32,10.0,Calm,Calm,-,N/A,,Clear,0,2013-03-29 08:55:00
4:55 AM,18.5,16.7,93,30.32,10.0,West,3.5,-,N/A,,Clear,280,2013-03-29 09:55:00
5:55 AM,17.6,15.8,93,30.33,10.0,West,3.5,-,N/A,,Clear,270,2013-03-29 10:55:00
6:55 AM,19.4,15.8,86,30.34,10.0,Calm,Calm,-,N/A,,Clear,0,2013-03-29 11:55:00
7:55 AM,21.2,19.4,93,30.35,10.0,Calm,Calm,-,N/A,,Clear,0,2013-03-29 12:55:00
8:55 AM,30.2,24.8,80,30.36,10.0,Calm,Calm,-,N/A,,Clear,0,2013-03-29 13:55:00
9:55 AM,35.6,23.0,60,30.35,10.0,Calm,Calm,-,N/A,,Clear,0,2013-03-29 14:55:00
10:55 AM,41.0,23.0,49,30.35,10.0,Calm,Calm,-,N/A,,Clear,0,2013-03-29 15:55:00
11:55 AM,44.6,21.2,39,30.34,10.0,Calm,Calm,-,N/A,,Clear,0,2013-03-29 16:55:00
12:55 PM,46.4,21.2,37,30.32,10.0,East,5.8,-,N/A,,Clear,100,2013-03-29 17:55:00
1:55 PM,46.9,18.3,32,30.30,10.0,Calm,Calm,-,N/A,,Clear,0,2013-03-29 18:55:00
2:55 PM,50.0,23.0,35,30.29,10.0,Variable,3.5,-,N/A,,Clear,0,2013-03-29 19:55:00
3:55 PM,48.7,21.4,34,30.27,10.0,South,4.6,-,N/A,,Clear,190,2013-03-29 20:55:00
4:55 PM,49.3,22.6,35,30.25,10.0,ESE,3.5,-,N/A,,Clear,110,2013-03-29 21:55:00
5:55 PM,49.8,21.4,33,30.25,10.0,Calm,Calm,-,N/A,,Clear,0,2013-03-29 22:55:00
6:55 PM,46.6,20.1,35,30.24,10.0,Calm,Calm,-,N/A,,Clear,0,2013-03-29 23:55:00
7:55 PM,36.3,25.7,65,30.23,10.0,SE,3.5,-,N/A,,Mostly Cloudy,140,2013-03-30 00:55:00
8:55 PM,35.4,22.8,60,30.23,10.0,SSE,4.6,-,N/A,,Clear,160,2013-03-30 01:55:00
9:55 PM,30.7,23.2,74,30.22,10.0,SE,4.6,-,N/A,,Partly Cloudy,140,2013-03-30 02:55:00
10:55 PM,28.4,23.9,83,30.22,10.0,ESE,4.6,-,N/A,,Mostly Cloudy,120,2013-03-30 03:55:00
11:55 PM,29.8,24.8,81,30.21,10.0,ESE,3.5,-,N/A,,Overcast,110,2013-03-30 04:55:00